Time,TemperatureF,DewpointF,PressureIn,WindDirection,WindDirectionDegrees,WindSpeedMPH,WindSpeedGustMPH,Humidity,HourlyPrecipIn,Conditions,Clouds,dailyrainin,SoftwareType,DateUTC
2013-03-16 00:00:00,23.9,20.1,29.75,North,11,3.0,10.0,85,0.00,,,0.01,VWS V14.01,2013-03-16 04:00:00,
2013-03-16 00:05:00,23.8,19.7,29.75,NNE,18,0.0,4.0,84,0.00,,,0.00,VWS V14.01,2013-03-16 04:05:00,
2013-03-16 00:10:00,23.8,19.4,29.75,WNW,284,0.0,12.0,83,0.00,,,0.00,VWS V14.01,2013-03-16 04:10:00,
2013-03-16 00:15:00,23.8,19.4,29.75,NW,325,3.0,5.0,83,0.00,,,0.00,VWS V14.01,2013-03-16 04:15:00,
2013-03-16 00:20:00,23.9,19.2,29.75,NW,320,7.0,19.0,82,0.00,,,0.00,VWS V14.01,2013-03-16 04:20:00,
2013-03-16 00:25:00,23.8,19.4,29.75,NNW,348,17.0,22.0,83,0.00,,,0.00,VWS V14.01,2013-03-16 04:25:00,
2013-03-16 00:30:00,23.8,19.1,29.76,North,360,6.0,22.0,82,0.00,,,0.00,VWS V14.01,2013-03-16 04:30:00,
2013-03-16 00:35:00,23.8,19.4,29.76,NNE,13,3.0,5.0,83,0.00,,,0.00,VWS V14.01,2013-03-16 04:35:00,
2013-03-16 00:40:00,23.7,19.3,29.76,North,10,2.0,9.0,83,0.00,,,0.00,VWS V14.01,2013-03-16 04:40:00,
2013-03-16 00:45:00,23.6,19.2,29.76,North,9,2.0,5.0,83,0.00,,,0.00,VWS V14.01,2013-03-16 04:45:00,
2013-03-16 00:50:00,23.5,18.8,29.77,NNW,329,6.0,10.0,82,0.00,,,0.00,VWS V14.01,2013-03-16 04:50:00,
2013-03-16 00:55:00,23.5,18.5,29.76,NNW,348,7.0,7.0,81,0.00,,,0.00,VWS V14.01,2013-03-16 04:55:00,
2013-03-16 01:00:00,23.4,18.7,29.77,NNW,327,4.0,17.0,82,0.00,,,0.00,VWS V14.01,2013-03-16 05:00:00,
2013-03-16 01:05:00,23.3,18.6,29.77,WNW,302,0.0,4.0,82,0.00,,,0.00,VWS V14.01,2013-03-16 05:05:00,
2013-03-16 01:10:00,23.3,18.9,29.78,NNW,347,1.0,6.0,83,0.00,,,0.00,VWS V14.01,2013-03-16 05:10:00,
2013-03-16 01:15:00,23.1,19.0,29.78,NNE,24,5.0,6.0,84,0.00,,,0.00,VWS V14.01,2013-03-16 05:15:00,
2013-03-16 01:20:00,22.9,19.1,29.78,North,355,1.0,12.0,85,0.00,,,0.00,VWS V14.01,2013-03-16 05:20:00,
2013-03-16 01:25:00,22.8,19.0,29.78,NNE,24,0.0,0.0,85,0.00,,,0.00,VWS V14.01,2013-03-16 05:25:00,
2013-03-16 01:30:00,22.8,19.0,29.78,North,351,2.0,12.0,85,0.00,,,0.00,VWS V14.01,2013-03-16 05:30:00,
2013-03-16 01:35:00,22.7,19.1,29.78,NNW,346,5.0,5.0,86,0.00,,,0.00,VWS V14.01,2013-03-16 05:35:00,
2013-03-16 01:40:00,22.8,18.7,29.78,NNW,342,0.0,13.0,84,0.00,,,0.00,VWS V14.01,2013-03-16 05:40:00,
2013-03-16 01:45:00,22.7,18.9,29.78,SW,216,3.0,3.0,85,0.00,,,0.00,VWS V14.01,2013-03-16 05:45:00,
2013-03-16 01:50:00,22.7,18.3,29.78,North,349,6.0,9.0,83,0.00,,,0.00,VWS V14.01,2013-03-16 05:50:00,
2013-03-16 01:55:00,22.7,18.0,29.79,North,360,3.0,5.0,82,0.00,,,0.00,VWS V14.01,2013-03-16 05:55:00,
2013-03-16 02:00:00,22.6,18.2,29.79,NNW,338,0.0,5.0,83,0.00,,,0.00,VWS V14.01,2013-03-16 06:00:00,
2013-03-16 02:05:00,22.5,18.1,29.79,North,355,3.0,5.0,83,0.00,,,0.00,VWS V14.01,2013-03-16 06:05:00,
2013-03-16 02:10:00,22.5,18.1,29.79,NW,308,3.0,5.0,83,0.00,,,0.00,VWS V14.01,2013-03-16 06:10:00,
2013-03-16 02:15:00,22.4,17.8,29.79,North,355,10.0,10.0,82,0.00,,,0.00,VWS V14.01,2013-03-16 06:15:00,
2013-03-16 02:20:00,22.3,17.4,29.80,NW,304,5.0,12.0,81,0.00,,,0.00,VWS V14.01,2013-03-16 06:20:00,
2013-03-16 02:25:00,22.2,17.3,29.80,North,355,0.0,1.0,81,0.00,,,0.00,VWS V14.01,2013-03-16 06:25:00,
2013-03-16 02:30:00,22.1,17.2,29.80,NNW,338,6.0,13.0,81,0.00,,,0.00,VWS V14.01,2013-03-16 06:30:00,
2013-03-16 02:35:00,22.0,17.4,29.80,North,5,4.0,8.0,82,0.00,,,0.00,VWS V14.01,2013-03-16 06:35:00,
2013-03-16 02:40:00,21.7,17.1,29.81,NNW,331,5.0,15.0,82,0.00,,,0.00,VWS V14.01,2013-03-16 06:40:00,
2013-03-16 02:45:00,21.5,17.4,29.80,NNW,331,5.0,8.0,84,0.00,,,0.00,VWS V14.01,2013-03-16 06:45:00,
2013-03-16 02:50:00,21.4,17.3,29.80,North,5,3.0,8.0,84,0.00,,,0.00,VWS V14.01,2013-03-16 06:50:00,
2013-03-16 02:55:00,21.3,17.2,29.81,NNW,338,3.0,6.0,84,0.00,,,0.00,VWS V14.01,2013-03-16 06:55:00,
2013-03-16 03:00:00,21.2,17.4,29.81,NNW,341,4.0,12.0,85,0.00,,,0.00,VWS V14.01,2013-03-16 07:00:00,
2013-03-16 03:05:00,21.1,17.0,29.81,North,349,5.0,5.0,84,0.00,,,0.00,VWS V14.01,2013-03-16 07:05:00,
2013-03-16 03:10:00,20.9,17.1,29.81,NNW,332,3.0,10.0,85,0.00,,,0.00,VWS V14.01,2013-03-16 07:10:00,
2013-03-16 03:15:00,20.8,17.0,29.81,NNW,346,6.0,7.0,85,0.00,,,0.00,VWS V14.01,2013-03-16 07:15:00,
2013-03-16 03:20:00,20.7,16.9,29.81,North,360,4.0,9.0,85,0.00,,,0.00,VWS V14.01,2013-03-16 07:20:00,
2013-03-16 03:25:00,20.6,17.1,29.81,NNW,340,4.0,4.0,86,0.00,,,0.00,VWS V14.01,2013-03-16 07:25:00,
2013-03-16 03:30:00,20.4,16.9,29.81,North,355,5.0,7.0,86,0.00,,,0.00,VWS V14.01,2013-03-16 07:30:00,
2013-03-16 03:35:00,20.3,17.1,29.82,NNW,339,2.0,3.0,87,0.00,,,0.00,VWS V14.01,2013-03-16 07:35:00,
2013-03-16 03:40:00,20.2,17.0,29.82,North,350,6.0,6.0,87,0.00,,,0.00,VWS V14.01,2013-03-16 07:40:00,
2013-03-16 03:45:00,20.1,16.9,29.82,North,349,0.0,0.0,87,0.00,,,0.00,VWS V14.01,2013-03-16 07:45:00,
2013-03-16 03:50:00,20.1,16.9,29.82,NNE,23,0.0,2.0,87,0.00,,,0.00,VWS V14.01,2013-03-16 07:50:00,
2013-03-16 03:55:00,20.0,17.0,29.82,NNW,342,2.0,2.0,88,0.00,,,0.00,VWS V14.01,2013-03-16 07:55:00,
2013-03-16 04:00:00,19.9,16.9,29.82,North,360,1.0,3.0,88,0.00,,,0.00,VWS V14.01,2013-03-16 08:00:00,
2013-03-16 04:05:00,19.7,16.7,29.82,North,5,0.0,4.0,88,0.00,,,0.00,VWS V14.01,2013-03-16 08:05:00,
2013-03-16 04:10:00,19.6,16.6,29.83,NNE,31,0.0,10.0,88,0.00,,,0.00,VWS V14.01,2013-03-16 08:10:00,
2013-03-16 04:15:00,19.5,16.3,29.83,North,355,2.0,6.0,87,0.00,,,0.00,VWS V14.01,2013-03-16 08:15:00,
2013-03-16 04:20:00,19.4,15.9,29.83,NNE,14,7.0,12.0,86,0.00,,,0.00,VWS V14.01,2013-03-16 08:20:00,
2013-03-16 04:25:00,19.4,16.2,29.83,North,5,3.0,9.0,87,0.00,,,0.00,VWS V14.01,2013-03-16 08:25:00,
2013-03-16 04:30:00,19.4,15.9,29.82,NNE,26,3.0,11.0,86,0.00,,,0.00,VWS V14.01,2013-03-16 08:30:00,
2013-03-16 04:35:00,19.3,15.8,29.83,North,5,6.0,8.0,86,0.00,,,0.00,VWS V14.01,2013-03-16 08:35:00,
2013-03-16 04:40:00,19.2,15.7,29.83,North,355,1.0,9.0,86,0.00,,,0.00,VWS V14.01,2013-03-16 08:40:00,
2013-03-16 04:45:00,19.2,15.4,29.83,NNW,342,4.0,5.0,85,0.00,,,0.00,VWS V14.01,2013-03-16 08:45:00,
2013-03-16 04:50:00,19.1,15.3,29.83,NNE,13,0.0,13.0,85,0.00,,,0.00,VWS V14.01,2013-03-16 08:50:00,
2013-03-16 04:55:00,19.1,15.1,29.83,NNW,331,3.0,3.0,84,0.00,,,0.00,VWS V14.01,2013-03-16 08:55:00,
2013-03-16 05:00:00,19.0,15.2,29.83,North,5,4.0,10.0,85,0.00,,,0.00,VWS V14.01,2013-03-16 09:00:00,
2013-03-16 05:05:00,18.9,15.1,29.83,North,5,2.0,6.0,85,0.00,,,0.00,VWS V14.01,2013-03-16 09:05:00,
2013-03-16 05:10:00,18.8,14.8,29.83,NNW,333,9.0,12.0,84,0.00,,,0.00,VWS V14.01,2013-03-16 09:10:00,
2013-03-16 05:15:00,18.7,14.7,29.83,North,355,2.0,3.0,84,0.00,,,0.00,VWS V14.01,2013-03-16 09:15:00,
2013-03-16 05:20:00,18.6,14.9,29.83,North,5,0.0,4.0,85,0.00,,,0.00,VWS V14.01,2013-03-16 09:20:00,
2013-03-16 05:25:00,18.5,15.0,29.83,North,5,5.0,5.0,86,0.00,,,0.00,VWS V14.01,2013-03-16 09:25:00,
2013-03-16 05:30:00,18.4,14.9,29.83,North,11,3.0,10.0,86,0.00,,,0.00,VWS V14.01,2013-03-16 09:30:00,
2013-03-16 05:35:00,18.2,14.7,29.83,North,5,0.0,1.0,86,0.00,,,0.00,VWS V14.01,2013-03-16 09:35:00,
2013-03-16 05:40:00,18.0,14.5,29.84,North,350,2.0,5.0,86,0.00,,,0.00,VWS V14.01,2013-03-16 09:40:00,
2013-03-16 05:45:00,17.9,14.4,29.84,North,9,3.0,3.0,86,0.00,,,0.00,VWS V14.01,2013-03-16 09:45:00,
2013-03-16 05:50:00,17.8,14.1,29.84,NNE,13,4.0,8.0,85,0.00,,,0.00,VWS V14.01,2013-03-16 09:50:00,
2013-03-16 05:55:00,17.8,14.1,29.84,NNW,344,3.0,4.0,85,0.00,,,0.00,VWS V14.01,2013-03-16 09:55:00,
2013-03-16 06:00:00,17.8,14.3,29.84,North,350,7.0,8.0,86,0.00,,,0.00,VWS V14.01,2013-03-16 10:00:00,
2013-03-16 06:05:00,17.8,14.1,29.84,NNW,334,0.0,1.0,85,0.00,,,0.00,VWS V14.01,2013-03-16 10:05:00,
2013-03-16 06:10:00,17.7,14.0,29.84,North,355,2.0,8.0,85,0.00,,,0.00,VWS V14.01,2013-03-16 10:10:00,
2013-03-16 06:15:00,17.7,14.2,29.84,East,99,0.0,1.0,86,0.00,,,0.00,VWS V14.01,2013-03-16 10:15:00,
2013-03-16 06:20:00,17.7,14.2,29.85,NNE,15,0.0,6.0,86,0.00,,,0.00,VWS V14.01,2013-03-16 10:20:00,
2013-03-16 06:25:00,17.5,14.3,29.86,NNE,17,0.0,0.0,87,0.00,,,0.00,VWS V14.01,2013-03-16 10:25:00,
2013-03-16 06:30:00,17.5,14.3,29.86,NNE,17,0.0,2.0,87,0.00,,,0.00,VWS V14.01,2013-03-16 10:30:00,
2013-03-16 06:35:00,17.5,14.6,29.86,NNW,336,2.0,2.0,88,0.00,,,0.00,VWS V14.01,2013-03-16 10:35:00,
2013-03-16 06:40:00,17.4,14.5,29.86,North,360,3.0,5.0,88,0.00,,,0.00,VWS V14.01,2013-03-16 10:40:00,
2013-03-16 06:45:00,17.4,14.5,29.86,NNW,344,1.0,1.0,88,0.00,,,0.00,VWS V14.01,2013-03-16 10:45:00,
2013-03-16 06:50:00,17.4,14.5,29.86,NNE,15,0.0,4.0,88,0.00,,,0.00,VWS V14.01,2013-03-16 10:50:00,
2013-03-16 06:55:00,17.3,14.1,29.86,NNW,336,0.0,0.0,87,0.00,,,0.00,VWS V14.01,2013-03-16 10:55:00,
2013-03-16 07:00:00,17.2,14.0,29.86,North,350,0.0,6.0,87,0.00,,,0.00,VWS V14.01,2013-03-16 11:00:00,
2013-03-16 07:05:00,17.2,13.7,29.86,NE,51,0.0,0.0,86,0.00,,,0.00,VWS V14.01,2013-03-16 11:05:00,
2013-03-16 07:10:00,17.1,13.4,29.86,NNE,31,1.0,7.0,85,0.00,,,0.00,VWS V14.01,2013-03-16 11:10:00,
2013-03-16 07:15:00,17.0,13.0,29.86,NNW,338,0.0,3.0,84,0.00,,,0.00,VWS V14.01,2013-03-16 11:15:00,
2013-03-16 07:20:00,16.9,12.9,29.86,NNE,12,0.0,6.0,84,0.00,,,0.00,VWS V14.01,2013-03-16 11:20:00,
2013-03-16 07:25:00,16.8,12.5,29.86,NNW,344,1.0,3.0,83,0.00,,,0.00,VWS V14.01,2013-03-16 11:25:00,
2013-03-16 07:30:00,16.7,12.7,29.86,North,5,0.0,5.0,84,0.00,,,0.00,VWS V14.01,2013-03-16 11:30:00,
2013-03-16 07:35:00,16.6,12.6,29.86,NNW,337,0.0,1.0,84,0.00,,,0.00,VWS V14.01,2013-03-16 11:35:00,
2013-03-16 07:40:00,16.6,12.6,29.86,North,351,0.0,4.0,84,0.00,,,0.00,VWS V14.01,2013-03-16 11:40:00,
2013-03-16 07:45:00,16.5,12.5,29.86,North,351,0.0,0.0,84,0.00,,,0.00,VWS V14.01,2013-03-16 11:45:00,
2013-03-16 07:50:00,16.5,12.5,29.86,North,351,0.0,2.0,84,0.00,,,0.00,VWS V14.01,2013-03-16 11:50:00,
2013-03-16 07:55:00,16.5,12.5,29.86,NNE,17,0.0,1.0,84,0.00,,,0.00,VWS V14.01,2013-03-16 11:55:00,
2013-03-16 08:00:00,16.4,12.4,29.86,North,349,0.0,4.0,84,0.00,,,0.00,VWS V14.01,2013-03-16 12:00:00,
2013-03-16 08:05:00,16.5,12.5,29.87,North,349,0.0,0.0,84,0.00,,,0.00,VWS V14.01,2013-03-16 12:05:00,
2013-03-16 08:10:00,16.6,12.9,29.87,North,349,0.0,2.0,85,0.00,,,0.00,VWS V14.01,2013-03-16 12:10:00,
2013-03-16 08:15:00,16.7,12.7,29.87,NNW,346,0.0,0.0,84,0.00,,,0.00,VWS V14.01,2013-03-16 12:15:00,
2013-03-16 08:20:00,16.8,12.8,29.87,NNW,346,1.0,1.0,84,0.00,,,0.00,VWS V14.01,2013-03-16 12:20:00,
2013-03-16 08:25:00,16.9,12.6,29.87,North,5,2.0,2.0,83,0.00,,,0.00,VWS V14.01,2013-03-16 12:25:00,
2013-03-16 08:30:00,16.9,12.4,29.87,NNW,340,2.0,5.0,82,0.00,,,0.00,VWS V14.01,2013-03-16 12:30:00,
2013-03-16 08:35:00,16.8,12.0,29.87,NNW,345,2.0,2.0,81,0.00,,,0.00,VWS V14.01,2013-03-16 12:35:00,
2013-03-16 08:40:00,16.8,12.0,29.87,NW,323,2.0,3.0,81,0.00,,,0.00,VWS V14.01,2013-03-16 12:40:00,
2013-03-16 08:45:00,16.8,11.7,29.87,NW,323,0.0,0.0,80,0.00,,,0.00,VWS V14.01,2013-03-16 12:45:00,
2013-03-16 08:50:00,16.8,11.7,29.88,North,350,2.0,5.0,80,0.00,,,0.00,VWS V14.01,2013-03-16 12:50:00,
2013-03-16 08:55:00,16.9,11.8,29.88,NNW,343,0.0,0.0,80,0.00,,,0.00,VWS V14.01,2013-03-16 12:55:00,
2013-03-16 09:00:00,17.0,11.6,29.88,NNW,338,1.0,3.0,79,0.00,,,0.00,VWS V14.01,2013-03-16 13:00:00,
2013-03-16 09:05:00,17.2,11.8,29.88,NNW,338,0.0,0.0,79,0.00,,,0.00,VWS V14.01,2013-03-16 13:05:00,
2013-03-16 09:10:00,17.4,11.7,29.88,NW,321,3.0,6.0,78,0.00,,,0.00,VWS V14.01,2013-03-16 13:10:00,
2013-03-16 09:15:00,17.6,11.9,29.88,NNW,344,0.0,1.0,78,0.00,,,0.00,VWS V14.01,2013-03-16 13:15:00,
2013-03-16 09:20:00,17.6,11.6,29.88,NNW,344,3.0,3.0,77,0.00,,,0.00,VWS V14.01,2013-03-16 13:20:00,
2013-03-16 09:25:00,17.6,11.0,29.88,NNW,344,3.0,3.0,75,0.00,,,0.00,VWS V14.01,2013-03-16 13:25:00,
2013-03-16 09:30:00,17.7,10.8,29.88,NNW,332,0.0,4.0,74,0.00,,,0.00,VWS V14.01,2013-03-16 13:30:00,
2013-03-16 09:35:00,18.1,11.2,29.88,NNW,332,0.0,0.0,74,0.00,,,0.00,VWS V14.01,2013-03-16 13:35:00,
2013-03-16 09:40:00,18.5,11.6,29.88,NNW,332,0.0,3.0,74,0.00,,,0.00,VWS V14.01,2013-03-16 13:40:00,
2013-03-16 09:45:00,18.7,11.5,29.88,NNW,338,0.0,1.0,73,0.00,,,0.00,VWS V14.01,2013-03-16 13:45:00,
2013-03-16 09:50:00,19.3,12.4,29.88,NNW,338,3.0,4.0,74,0.00,,,0.00,VWS V14.01,2013-03-16 13:50:00,
2013-03-16 09:55:00,19.7,12.5,29.88,NE,45,0.0,0.0,73,0.00,,,0.00,VWS V14.01,2013-03-16 13:55:00,
2013-03-16 10:00:00,19.5,11.6,29.88,ENE,69,0.0,5.0,71,0.00,,,0.00,VWS V14.01,2013-03-16 14:00:00,
2013-03-16 10:05:00,19.4,10.9,29.88,NNW,340,0.0,0.0,69,0.00,,,0.00,VWS V14.01,2013-03-16 14:05:00,
2013-03-16 10:10:00,19.1,10.3,29.88,NNW,348,0.0,5.0,68,0.00,,,0.00,VWS V14.01,2013-03-16 14:10:00,
2013-03-16 10:15:00,19.1,10.6,29.88,NNW,348,3.0,4.0,69,0.00,,,0.00,VWS V14.01,2013-03-16 14:15:00,
2013-03-16 10:20:00,19.2,10.7,29.88,NNW,348,0.0,4.0,69,0.00,,,0.00,VWS V14.01,2013-03-16 14:20:00,
2013-03-16 10:25:00,19.3,10.8,29.88,NE,44,1.0,2.0,69,0.00,,,0.00,VWS V14.01,2013-03-16 14:25:00,
2013-03-16 10:30:00,19.8,12.2,29.88,NNE,15,0.0,3.0,72,0.00,,,0.00,VWS V14.01,2013-03-16 14:30:00,
2013-03-16 10:35:00,19.8,10.6,29.88,NNW,334,2.0,3.0,67,0.00,,,0.00,VWS V14.01,2013-03-16 14:35:00,
2013-03-16 10:40:00,19.7,10.2,29.88,ENE,74,2.0,3.0,66,0.00,,,0.00,VWS V14.01,2013-03-16 14:40:00,
2013-03-16 10:45:00,19.9,11.1,29.88,NNW,340,2.0,2.0,68,0.00,,,0.00,VWS V14.01,2013-03-16 14:45:00,
2013-03-16 10:50:00,19.9,10.4,29.87,North,355,0.0,5.0,66,0.00,,,0.00,VWS V14.01,2013-03-16 14:50:00,
2013-03-16 10:55:00,20.0,11.1,29.87,NNE,28,0.0,1.0,68,0.00,,,0.00,VWS V14.01,2013-03-16 14:55:00,
2013-03-16 11:00:00,20.1,10.2,29.87,NNE,28,0.0,3.0,65,0.00,,,0.00,VWS V14.01,2013-03-16 15:00:00,
2013-03-16 11:05:00,20.1,9.5,29.87,NNW,335,0.0,0.0,63,0.00,,,0.00,VWS V14.01,2013-03-16 15:05:00,
2013-03-16 11:10:00,20.4,9.5,29.87,NNW,335,0.0,1.0,62,0.00,,,0.00,VWS V14.01,2013-03-16 15:10:00,
2013-03-16 11:15:00,20.9,10.3,29.87,NNW,335,3.0,4.0,63,0.00,,,0.00,VWS V14.01,2013-03-16 15:15:00,
2013-03-16 11:20:00,21.1,9.8,29.87,WSW,239,0.0,4.0,61,0.00,,,0.00,VWS V14.01,2013-03-16 15:20:00,
2013-03-16 11:25:00,21.1,9.8,29.87,WNW,288,0.0,2.0,61,0.00,,,0.00,VWS V14.01,2013-03-16 15:25:00,
2013-03-16 11:30:00,20.9,9.6,29.87,NW,311,2.0,4.0,61,0.00,,,0.00,VWS V14.01,2013-03-16 15:30:00,
2013-03-16 11:35:00,20.8,9.1,29.87,NW,309,0.0,0.0,60,0.00,,,0.00,VWS V14.01,2013-03-16 15:35:00,
2013-03-16 11:40:00,21.2,9.9,29.87,NW,310,2.0,2.0,61,0.00,,,0.00,VWS V14.01,2013-03-16 15:40:00,
2013-03-16 11:45:00,21.3,9.6,29.87,North,360,2.0,4.0,60,0.00,,,0.00,VWS V14.01,2013-03-16 15:45:00,
2013-03-16 11:50:00,21.6,9.9,29.87,NW,311,1.0,6.0,60,0.00,,,0.00,VWS V14.01,2013-03-16 15:50:00,
2013-03-16 11:55:00,21.1,9.4,29.87,North,5,0.0,1.0,60,0.00,,,0.00,VWS V14.01,2013-03-16 15:55:00,
2013-03-16 12:00:00,21.1,9.4,29.87,SW,231,4.0,8.0,60,0.00,,,0.00,VWS V14.01,2013-03-16 16:00:00,
2013-03-16 12:05:00,20.9,9.2,29.87,WNW,296,0.0,3.0,60,0.00,,,0.00,VWS V14.01,2013-03-16 16:05:00,
2013-03-16 12:10:00,21.0,8.9,29.88,NW,307,5.0,6.0,59,0.00,,,0.00,VWS V14.01,2013-03-16 16:10:00,
2013-03-16 12:15:00,21.3,9.2,29.87,NW,304,0.0,1.0,59,0.00,,,0.00,VWS V14.01,2013-03-16 16:15:00,
2013-03-16 12:20:00,21.9,8.6,29.87,NE,54,3.0,11.0,56,0.00,,,0.00,VWS V14.01,2013-03-16 16:20:00,
2013-03-16 12:25:00,22.1,9.6,29.88,WNW,290,6.0,6.0,58,0.00,,,0.00,VWS V14.01,2013-03-16 16:25:00,
2013-03-16 12:30:00,21.7,9.2,29.87,NNW,333,5.0,7.0,58,0.00,,,0.00,VWS V14.01,2013-03-16 16:30:00,
2013-03-16 12:35:00,22.4,10.6,29.87,NNE,12,5.0,8.0,60,0.00,,,0.00,VWS V14.01,2013-03-16 16:35:00,
2013-03-16 12:40:00,22.1,9.2,29.87,North,5,7.0,10.0,57,0.00,,,0.00,VWS V14.01,2013-03-16 16:40:00,
2013-03-16 12:45:00,21.7,10.0,29.87,WNW,284,6.0,7.0,60,0.00,,,0.00,VWS V14.01,2013-03-16 16:45:00,
2013-03-16 12:50:00,22.1,10.4,29.87,NNW,330,5.0,7.0,60,0.00,,,0.00,VWS V14.01,2013-03-16 16:50:00,
2013-03-16 12:55:00,22.1,9.6,29.87,NW,320,0.0,1.0,58,0.00,,,0.00,VWS V14.01,2013-03-16 16:55:00,
2013-03-16 13:00:00,22.7,9.4,29.86,WSW,254,5.0,7.0,56,0.00,,,0.00,VWS V14.01,2013-03-16 17:00:00,
2013-03-16 13:05:00,23.5,9.7,29.86,NNW,336,6.0,6.0,55,0.00,,,0.00,VWS V14.01,2013-03-16 17:05:00,
2013-03-16 13:10:00,22.9,9.2,29.86,North,360,1.0,10.0,55,0.00,,,0.00,VWS V14.01,2013-03-16 17:10:00,
2013-03-16 13:15:00,22.8,9.1,29.86,NNW,348,3.0,3.0,55,0.00,,,0.00,VWS V14.01,2013-03-16 17:15:00,
2013-03-16 13:20:00,22.9,9.2,29.86,NW,321,3.0,11.0,55,0.00,,,0.00,VWS V14.01,2013-03-16 17:20:00,
2013-03-16 13:25:00,23.7,10.7,29.86,WNW,290,2.0,5.0,57,0.00,,,0.00,VWS V14.01,2013-03-16 17:25:00,
2013-03-16 13:30:00,24.3,10.1,29.86,NNW,329,1.0,6.0,54,0.00,,,0.00,VWS V14.01,2013-03-16 17:30:00,
2013-03-16 13:35:00,24.5,9.8,29.86,WNW,296,3.0,5.0,53,0.00,,,0.00,VWS V14.01,2013-03-16 17:35:00,
2013-03-16 13:40:00,23.8,8.8,29.86,NW,324,2.0,8.0,52,0.00,,,0.00,VWS V14.01,2013-03-16 17:40:00,
2013-03-16 13:45:00,23.7,8.7,29.86,NW,317,2.0,5.0,52,0.00,,,0.00,VWS V14.01,2013-03-16 17:45:00,
2013-03-16 13:50:00,23.7,9.1,29.86,NNW,344,5.0,7.0,53,0.01,,,0.01,VWS V14.01,2013-03-16 17:50:00,
2013-03-16 13:55:00,23.4,9.6,29.86,NNW,327,5.0,7.0,55,0.01,,,0.01,VWS V14.01,2013-03-16 17:55:00,
2013-03-16 14:00:00,23.3,8.7,29.86,WSW,245,1.0,9.0,53,0.01,,,0.01,VWS V14.01,2013-03-16 18:00:00,
2013-03-16 14:05:00,24.3,10.5,29.86,NNW,327,5.0,7.0,55,0.01,,,0.01,VWS V14.01,2013-03-16 18:05:00,
2013-03-16 14:10:00,24.0,9.4,29.86,NW,315,2.0,7.0,53,0.02,,,0.02,VWS V14.01,2013-03-16 18:10:00,
2013-03-16 14:15:00,23.5,9.7,29.86,NNW,346,3.0,3.0,55,0.02,,,0.02,VWS V14.01,2013-03-16 18:15:00,
2013-03-16 14:20:00,23.5,9.7,29.86,NW,309,5.0,7.0,55,0.02,,,0.02,VWS V14.01,2013-03-16 18:20:00,
2013-03-16 14:25:00,23.4,9.6,29.86,North,5,7.0,9.0,55,0.02,,,0.02,VWS V14.01,2013-03-16 18:25:00,
2013-03-16 14:30:00,23.3,10.3,29.86,NNW,331,1.0,9.0,57,0.02,,,0.02,VWS V14.01,2013-03-16 18:30:00,
2013-03-16 14:35:00,23.3,10.3,29.86,NNW,329,2.0,4.0,57,0.02,,,0.02,VWS V14.01,2013-03-16 18:35:00,
2013-03-16 14:40:00,23.4,10.4,29.86,NNW,343,2.0,7.0,57,0.02,,,0.02,VWS V14.01,2013-03-16 18:40:00,
2013-03-16 14:45:00,23.4,10.0,29.86,NW,308,5.0,7.0,56,0.02,,,0.02,VWS V14.01,2013-03-16 18:45:00,
2013-03-16 14:50:00,23.4,10.0,29.86,NW,304,4.0,7.0,56,0.02,,,0.02,VWS V14.01,2013-03-16 18:50:00,
2013-03-16 14:55:00,23.3,9.5,29.86,NW,311,4.0,5.0,55,0.01,,,0.02,VWS V14.01,2013-03-16 18:55:00,
2013-03-16 15:00:00,23.2,10.6,29.86,West,281,5.0,7.0,58,0.01,,,0.02,VWS V14.01,2013-03-16 19:00:00,
2013-03-16 15:05:00,23.3,10.3,29.85,NNW,344,0.0,3.0,57,0.01,,,0.02,VWS V14.01,2013-03-16 19:05:00,
2013-03-16 15:10:00,23.4,10.4,29.86,NNW,333,5.0,7.0,57,0.01,,,0.02,VWS V14.01,2013-03-16 19:10:00,
2013-03-16 15:15:00,23.5,10.5,29.86,North,9,3.0,5.0,57,0.00,,,0.02,VWS V14.01,2013-03-16 19:15:00,
2013-03-16 15:20:00,23.7,10.7,29.86,NW,307,1.0,8.0,57,0.00,,,0.02,VWS V14.01,2013-03-16 19:20:00,
2013-03-16 15:25:00,23.3,9.9,29.86,WNW,300,4.0,5.0,56,0.00,,,0.02,VWS V14.01,2013-03-16 19:25:00,
2013-03-16 15:30:00,23.3,10.7,29.86,NW,309,5.0,8.0,58,0.00,,,0.02,VWS V14.01,2013-03-16 19:30:00,
2013-03-16 15:35:00,23.4,10.8,29.86,SW,225,0.0,3.0,58,0.00,,,0.02,VWS V14.01,2013-03-16 19:35:00,
2013-03-16 15:40:00,24.0,11.4,29.85,NNW,338,3.0,8.0,58,0.00,,,0.02,VWS V14.01,2013-03-16 19:40:00,
2013-03-16 15:45:00,24.4,11.4,29.85,NNW,339,2.0,4.0,57,0.00,,,0.02,VWS V14.01,2013-03-16 19:45:00,
2013-03-16 15:50:00,24.2,11.6,29.85,WNW,300,6.0,8.0,58,0.00,,,0.02,VWS V14.01,2013-03-16 19:50:00,
2013-03-16 15:55:00,24.1,11.9,29.85,NW,309,0.0,0.0,59,0.00,,,0.02,VWS V14.01,2013-03-16 19:55:00,
2013-03-16 16:00:00,24.1,11.5,29.85,West,278,2.0,7.0,58,0.00,,,0.02,VWS V14.01,2013-03-16 20:00:00,
2013-03-16 16:05:00,23.8,10.8,29.85,WNW,296,1.0,4.0,57,0.00,,,0.02,VWS V14.01,2013-03-16 20:05:00,
2013-03-16 16:10:00,23.6,11.0,29.85,WNW,292,1.0,6.0,58,0.00,,,0.02,VWS V14.01,2013-03-16 20:10:00,
2013-03-16 16:15:00,23.6,11.0,29.85,WNW,302,3.0,4.0,58,0.00,,,0.02,VWS V14.01,2013-03-16 20:15:00,
2013-03-16 16:20:00,23.6,11.4,29.85,NNW,348,0.0,5.0,59,0.00,,,0.02,VWS V14.01,2013-03-16 20:20:00,
2013-03-16 16:25:00,23.6,11.4,29.85,NNW,346,0.0,3.0,59,0.00,,,0.02,VWS V14.01,2013-03-16 20:25:00,
2013-03-16 16:30:00,24.0,12.1,29.85,West,276,0.0,3.0,60,0.00,,,0.02,VWS V14.01,2013-03-16 20:30:00,
2013-03-16 16:35:00,24.2,11.6,29.84,North,355,3.0,5.0,58,0.00,,,0.02,VWS V14.01,2013-03-16 20:35:00,
2013-03-16 16:40:00,24.0,11.8,29.85,NW,308,5.0,5.0,59,0.00,,,0.02,VWS V14.01,2013-03-16 20:40:00,
2013-03-16 16:45:00,23.9,11.7,29.84,NNW,340,4.0,7.0,59,0.00,,,0.02,VWS V14.01,2013-03-16 20:45:00,
2013-03-16 16:50:00,23.8,11.6,29.85,WNW,290,3.0,7.0,59,0.00,,,0.02,VWS V14.01,2013-03-16 20:50:00,
2013-03-16 16:55:00,23.7,11.5,29.85,WNW,294,3.0,3.0,59,0.00,,,0.02,VWS V14.01,2013-03-16 20:55:00,
2013-03-16 17:00:00,23.5,11.3,29.84,NNW,331,1.0,6.0,59,0.00,,,0.02,VWS V14.01,2013-03-16 21:00:00,
2013-03-16 17:05:00,23.7,11.5,29.85,NW,315,2.0,4.0,59,0.00,,,0.02,VWS V14.01,2013-03-16 21:05:00,
2013-03-16 17:10:00,23.6,11.4,29.85,North,5,5.0,7.0,59,0.00,,,0.02,VWS V14.01,2013-03-16 21:10:00,
2013-03-16 17:15:00,23.7,12.2,29.85,NW,318,0.0,1.0,61,0.00,,,0.02,VWS V14.01,2013-03-16 21:15:00,
2013-03-16 17:20:00,23.7,11.9,29.85,NW,315,0.0,3.0,60,0.00,,,0.02,VWS V14.01,2013-03-16 21:20:00,
2013-03-16 17:25:00,23.6,11.8,29.85,NNW,346,3.0,3.0,60,0.00,,,0.02,VWS V14.01,2013-03-16 21:25:00,
2013-03-16 17:30:00,23.6,11.8,29.85,North,349,3.0,5.0,60,0.00,,,0.02,VWS V14.01,2013-03-16 21:30:00,
2013-03-16 17:35:00,23.5,12.0,29.86,North,360,1.0,1.0,61,0.00,,,0.02,VWS V14.01,2013-03-16 21:35:00,
2013-03-16 17:40:00,23.4,11.6,29.85,NNW,334,0.0,6.0,60,0.00,,,0.02,VWS V14.01,2013-03-16 21:40:00,
2013-03-16 17:45:00,23.3,11.9,29.85,WNW,302,0.0,3.0,61,0.00,,,0.02,VWS V14.01,2013-03-16 21:45:00,
2013-03-16 17:50:00,23.3,11.9,29.85,North,360,2.0,6.0,61,0.00,,,0.02,VWS V14.01,2013-03-16 21:50:00,
2013-03-16 17:55:00,23.3,12.2,29.85,NNE,30,0.0,4.0,62,0.00,,,0.02,VWS V14.01,2013-03-16 21:55:00,
2013-03-16 18:00:00,23.3,12.2,29.85,North,355,6.0,6.0,62,0.00,,,0.02,VWS V14.01,2013-03-16 22:00:00,
2013-03-16 18:05:00,23.2,12.1,29.85,North,355,2.0,3.0,62,0.00,,,0.02,VWS V14.01,2013-03-16 22:05:00,
2013-03-16 18:10:00,23.2,12.5,29.85,North,355,2.0,4.0,63,0.00,,,0.02,VWS V14.01,2013-03-16 22:10:00,
2013-03-16 18:15:00,23.1,12.0,29.85,North,355,0.0,0.0,62,0.00,,,0.02,VWS V14.01,2013-03-16 22:15:00,
2013-03-16 18:20:00,23.0,11.9,29.85,North,360,0.0,5.0,62,0.00,,,0.02,VWS V14.01,2013-03-16 22:20:00,
2013-03-16 18:25:00,22.9,11.8,29.85,NNW,346,1.0,1.0,62,0.00,,,0.02,VWS V14.01,2013-03-16 22:25:00,
2013-03-16 18:30:00,22.8,12.8,29.85,NNW,344,0.0,4.0,65,0.00,,,0.02,VWS V14.01,2013-03-16 22:30:00,
2013-03-16 18:35:00,22.8,12.8,29.85,NNW,344,0.0,0.0,65,0.00,,,0.02,VWS V14.01,2013-03-16 22:35:00,
2013-03-16 18:40:00,22.7,13.1,29.85,ENE,65,0.0,1.0,66,0.00,,,0.02,VWS V14.01,2013-03-16 22:40:00,
2013-03-16 18:45:00,22.6,13.6,29.86,NW,309,0.0,0.0,68,0.00,,,0.02,VWS V14.01,2013-03-16 22:45:00,
2013-03-16 18:50:00,22.4,13.4,29.86,NW,323,0.0,2.0,68,0.00,,,0.02,VWS V14.01,2013-03-16 22:50:00,
2013-03-16 18:55:00,22.2,13.6,29.86,NNW,327,0.0,0.0,69,0.00,,,0.02,VWS V14.01,2013-03-16 22:55:00,
2013-03-16 19:00:00,22.0,13.4,29.86,NNW,347,0.0,2.0,69,0.00,,,0.02,VWS V14.01,2013-03-16 23:00:00,
2013-03-16 19:05:00,21.9,13.3,29.86,NNW,347,0.0,0.0,69,0.00,,,0.02,VWS V14.01,2013-03-16 23:05:00,
2013-03-16 19:10:00,21.7,13.1,29.87,NE,52,1.0,2.0,69,0.00,,,0.02,VWS V14.01,2013-03-16 23:10:00,
2013-03-16 19:15:00,21.6,13.3,29.87,NE,54,0.0,0.0,70,0.00,,,0.02,VWS V14.01,2013-03-16 23:15:00,
2013-03-16 19:20:00,21.5,13.2,29.87,NE,54,0.0,1.0,70,0.00,,,0.02,VWS V14.01,2013-03-16 23:20:00,
2013-03-16 19:25:00,21.4,12.8,29.87,NE,54,0.0,0.0,69,0.00,,,0.02,VWS V14.01,2013-03-16 23:25:00,
2013-03-16 19:30:00,21.3,13.1,29.87,NE,54,0.0,0.0,70,0.00,,,0.02,VWS V14.01,2013-03-16 23:30:00,
2013-03-16 19:35:00,21.2,13.0,29.87,NE,54,0.0,0.0,70,0.00,,,0.02,VWS V14.01,2013-03-16 23:35:00,
2013-03-16 19:40:00,21.1,12.9,29.87,NE,54,0.0,1.0,70,0.00,,,0.02,VWS V14.01,2013-03-16 23:40:00,
2013-03-16 19:45:00,21.0,13.1,29.88,NE,54,0.0,0.0,71,0.00,,,0.02,VWS V14.01,2013-03-16 23:45:00,
2013-03-16 19:50:00,20.9,13.0,29.88,NE,54,0.0,2.0,71,0.00,,,0.02,VWS V14.01,2013-03-16 23:50:00,
2013-03-16 19:55:00,20.8,12.9,29.88,NE,54,0.0,0.0,71,0.00,,,0.02,VWS V14.01,2013-03-16 23:55:00,
2013-03-16 20:00:00,20.7,13.1,29.88,NE,54,0.0,0.0,72,0.00,,,0.02,VWS V14.01,2013-03-17 00:00:00,
2013-03-16 20:05:00,20.5,12.9,29.89,NE,54,0.0,0.0,72,0.00,,,0.02,VWS V14.01,2013-03-17 00:05:00,
2013-03-16 20:10:00,20.4,12.8,29.89,NE,54,0.0,0.0,72,0.00,,,0.02,VWS V14.01,2013-03-17 00:10:00,
2013-03-16 20:15:00,20.3,12.7,29.89,NE,54,0.0,0.0,72,0.00,,,0.02,VWS V14.01,2013-03-17 00:15:00,
2013-03-16 20:20:00,20.2,12.6,29.89,NE,54,0.0,1.0,72,0.00,,,0.02,VWS V14.01,2013-03-17 00:20:00,
2013-03-16 20:25:00,20.1,12.9,29.89,NE,54,0.0,0.0,73,0.00,,,0.02,VWS V14.01,2013-03-17 00:25:00,
2013-03-16 20:30:00,20.0,12.8,29.89,NE,54,0.0,1.0,73,0.00,,,0.02,VWS V14.01,2013-03-17 00:30:00,
2013-03-16 20:35:00,19.9,12.7,29.89,NE,54,0.0,0.0,73,0.00,,,0.02,VWS V14.01,2013-03-17 00:35:00,
2013-03-16 20:40:00,19.8,12.6,29.89,NE,54,0.0,1.0,73,0.00,,,0.02,VWS V14.01,2013-03-17 00:40:00,
2013-03-16 20:45:00,19.6,12.4,29.90,NE,54,0.0,0.0,73,0.00,,,0.02,VWS V14.01,2013-03-17 00:45:00,
2013-03-16 20:50:00,19.5,12.6,29.90,NE,54,0.0,0.0,74,0.00,,,0.02,VWS V14.01,2013-03-17 00:50:00,
2013-03-16 20:55:00,19.3,12.4,29.90,NE,54,0.0,0.0,74,0.00,,,0.02,VWS V14.01,2013-03-17 00:55:00,
2013-03-16 21:00:00,19.2,12.3,29.90,NE,54,0.0,1.0,74,0.00,,,0.02,VWS V14.01,2013-03-17 01:00:00,
2013-03-16 21:05:00,19.1,12.2,29.91,NE,54,0.0,0.0,74,0.00,,,0.02,VWS V14.01,2013-03-17 01:05:00,
2013-03-16 21:10:00,19.0,12.4,29.90,NE,54,0.0,1.0,75,0.00,,,0.02,VWS V14.01,2013-03-17 01:10:00,
2013-03-16 21:15:00,18.9,12.0,29.90,NE,54,0.0,0.0,74,0.00,,,0.02,VWS V14.01,2013-03-17 01:15:00,
2013-03-16 21:20:00,18.7,12.1,29.90,NE,54,0.0,1.0,75,0.00,,,0.02,VWS V14.01,2013-03-17 01:20:00,
2013-03-16 21:25:00,18.5,11.9,29.90,NE,54,0.0,0.0,75,0.00,,,0.02,VWS V14.01,2013-03-17 01:25:00,
2013-03-16 21:30:00,18.3,11.7,29.90,NE,54,0.0,2.0,75,0.00,,,0.02,VWS V14.01,2013-03-17 01:30:00,
2013-03-16 21:35:00,18.1,11.8,29.91,NE,54,0.0,0.0,76,0.00,,,0.02,VWS V14.01,2013-03-17 01:35:00,
2013-03-16 21:40:00,18.0,11.7,29.91,NE,54,0.0,2.0,76,0.00,,,0.02,VWS V14.01,2013-03-17 01:40:00,
2013-03-16 21:45:00,17.8,11.8,29.91,NE,54,0.0,0.0,77,0.00,,,0.02,VWS V14.01,2013-03-17 01:45:00,
2013-03-16 21:50:00,17.3,11.3,29.91,NE,54,0.0,1.0,77,0.00,,,0.02,VWS V14.01,2013-03-17 01:50:00,
2013-03-16 21:55:00,17.1,11.4,29.91,NE,54,0.0,0.0,78,0.00,,,0.02,VWS V14.01,2013-03-17 01:55:00,
2013-03-16 22:00:00,16.9,11.2,29.91,NE,54,0.0,0.0,78,0.00,,,0.02,VWS V14.01,2013-03-17 02:00:00,
2013-03-16 22:05:00,16.7,11.3,29.92,NE,54,0.0,0.0,79,0.00,,,0.02,VWS V14.01,2013-03-17 02:05:00,
2013-03-16 22:10:00,16.6,11.5,29.92,NE,54,0.0,1.0,80,0.00,,,0.02,VWS V14.01,2013-03-17 02:10:00,
2013-03-16 22:15:00,16.6,11.5,29.92,NE,54,0.0,0.0,80,0.00,,,0.02,VWS V14.01,2013-03-17 02:15:00,
2013-03-16 22:20:00,16.5,11.4,29.92,NE,54,0.0,0.0,80,0.00,,,0.02,VWS V14.01,2013-03-17 02:20:00,
2013-03-16 22:25:00,16.5,11.4,29.92,NE,54,0.0,0.0,80,0.00,,,0.02,VWS V14.01,2013-03-17 02:25:00,
2013-03-16 22:30:00,16.5,11.4,29.93,NE,54,0.0,0.0,80,0.00,,,0.02,VWS V14.01,2013-03-17 02:30:00,
2013-03-16 22:35:00,16.4,11.3,29.93,NE,54,0.0,0.0,80,0.00,,,0.02,VWS V14.01,2013-03-17 02:35:00,
2013-03-16 22:40:00,16.3,11.2,29.93,NE,54,0.0,0.0,80,0.00,,,0.02,VWS V14.01,2013-03-17 02:40:00,
2013-03-16 22:45:00,16.2,11.1,29.93,NE,54,0.0,0.0,80,0.00,,,0.02,VWS V14.01,2013-03-17 02:45:00,
2013-03-16 22:50:00,16.1,11.0,29.93,NE,54,0.0,0.0,80,0.00,,,0.02,VWS V14.01,2013-03-17 02:50:00,
2013-03-16 22:55:00,16.1,11.0,29.93,NE,54,0.0,0.0,80,0.00,,,0.02,VWS V14.01,2013-03-17 02:55:00,
2013-03-16 23:00:00,16.0,10.9,29.93,NE,54,0.0,0.0,80,0.00,,,0.02,VWS V14.01,2013-03-17 03:00:00,
2013-03-16 23:05:00,16.0,10.9,29.93,NE,54,0.0,0.0,80,0.00,,,0.02,VWS V14.01,2013-03-17 03:05:00,
2013-03-16 23:10:00,15.9,11.1,29.93,NE,54,0.0,0.0,81,0.00,,,0.02,VWS V14.01,2013-03-17 03:10:00,
2013-03-16 23:15:00,15.8,11.0,29.93,NE,54,0.0,0.0,81,0.00,,,0.02,VWS V14.01,2013-03-17 03:15:00,
2013-03-16 23:20:00,15.7,10.9,29.93,NE,54,0.0,0.0,81,0.00,,,0.02,VWS V14.01,2013-03-17 03:20:00,
2013-03-16 23:25:00,15.7,10.9,29.93,ENE,68,0.0,0.0,81,0.00,,,0.02,VWS V14.01,2013-03-17 03:25:00,
2013-03-16 23:30:00,15.5,10.4,29.93,ENE,68,0.0,0.0,80,0.00,,,0.02,VWS V14.01,2013-03-17 03:30:00,
2013-03-16 23:35:00,15.4,10.6,29.93,ENE,68,0.0,0.0,81,0.00,,,0.02,VWS V14.01,2013-03-17 03:35:00,
2013-03-16 23:40:00,15.2,10.4,29.94,ENE,68,0.0,0.0,81,0.00,,,0.02,VWS V14.01,2013-03-17 03:40:00,
2013-03-16 23:45:00,15.3,10.5,29.94,ENE,68,0.0,0.0,81,0.00,,,0.02,VWS V14.01,2013-03-17 03:45:00,
2013-03-16 23:50:00,15.3,10.5,29.94,ENE,68,0.0,0.0,81,0.00,,,0.02,VWS V14.01,2013-03-17 03:50:00,
2013-03-16 23:55:00,15.2,10.4,29.94,ENE,68,0.0,0.0,81,0.00,,,0.02,VWS V14.01,2013-03-17 03:55:00,